Tracking 27380 objects as of 6-Jun-2023
HD Live streaming from Space Station
objects crossing your sky now

COSMOS 2251 DEB

Track COSMOS 2251 DEB now!
10-day predictions


NORAD ID: 34061
Int'l Code: 1993-036JY
Perigee: 761.4 km
Apogee: 789.7 km
Inclination: 74.0 °
Period: 100.2 minutes
Semi major axis: 7146 km
RCS: 0.027 m2 (small)
Launch date: June 16, 1993
Source: Commonwealth of Independent States (former USSR) (CIS)
Launch site: PLESETSK MISSILE AND SPACE COMPLEX (PKMTR)

Note: This is SATELLITE DEBRIS
Your satellite tracking list
Your tracking list is empty




NASA's NSSDC Master Catalog

Two Line Element Set (TLE):
1 34061U 93036JY  23156.78222365  .00000816  00000-0  28348-3 0  9990
2 34061  74.0386 160.9659 0019807 108.5981 306.4951 14.37009086749362
Source of the keplerian elements: AFSPC